Location: Gad�tanya
(48.0500°N, 20.8500°E)
Time: 11:57:47
(UTC+00:00)

Terra - Pass Details

Date: 05 July 2020
Orbit: 701 x 703 km, 98.2° (Epoch: 15 August)

Event Time Altitude Azimuth Distance (km) Brightness Sun altitude
Exits shadow 22:11:27 - 240° (WSW) 2,503 4.4 -19.0°
Maximum altitude 22:14:34 10° 275° (W) 2,152 4.5 -19.0°
Drops below altitude 10° 22:15:19 10° 284° (WNW) 2,176 4.6 -19.0°
Sets 22:19:58 0° 325° (NW) 3,103 6.2 -19.1°
